INTELSAT 905 (IS-905)

Last updated on Wed Sep 09 2026 00:02:58 GMT+0000 (Coordinated Universal Time)

1 27438U 02027A 26251.50392000 .00000076 00000+0 00000+0 0 9991 2 27438 6.9572 68.7587 0003245 128.9627 194.0624 1.00272198 52198
UTC large
Height (km)
Speed (km/s)
/
Latitude / Longitude
Inclination (degrees)
Orbital Period (minutes)
Azimuth
Elevation
Range (km)
Doppler Factor

Next 0 passes for location: London (51.5072 / 0.1276)

No passes found over London.
INTELSAT 905 (IS-905)